This is the latest recevied weather packets stored in our database for station/object W8AN. If no packets are shown the sender has not sent any weather packets the latest 10 day(s).
| Time | Temp. | Humidity | Pressure | Rain* | Wind** | Luminosity | Snow |
|---|---|---|---|---|---|---|---|
| 1778031085 | 8.89° C | 85% | 4263.9 hPa | 1.78 mm | - | 0 W/m² | - |
| 1778030782 | 8.89° C | 85% | 4263.6 hPa | 3.05 mm | - | 0 W/m² | - |
| 1778030479 | 8.89° C | 85% | 4263.5 hPa | 3.05 mm | - | 0 W/m² | - |
| 1778030177 | 8.89° C | 85% | 4263.6 hPa | 1.78 mm | - | 0 W/m² | - |
| 1778029872 | 8.89° C | 85% | 4263.6 hPa | 1.27 mm | - | 0 W/m² | - |
| 1778029572 | 8.89° C | 85% | 4263.7 hPa | 1.27 mm | - | 0 W/m² | - |
| 1778029268 | 8.89° C | 85% | 4263.6 hPa | 0 mm | - | 0 W/m² | - |
| 1778028965 | 8.89° C | 85% | 4263.4 hPa | 1.78 mm | - | 0 W/m² | - |
| 1778028661 | 8.89° C | 85% | 4263.4 hPa | 1.78 mm | - | 0 W/m² | - |
| 1778028359 | 8.89° C | 85% | 4263.5 hPa | 0 mm | - | 0 W/m² | - |
| 1778028055 | 8.89° C | 85% | 4263.5 hPa | 1.27 mm | - | 0 W/m² | - |
| 1778027751 | 8.89° C | 85% | 4263.2 hPa | 1.27 mm | - | 0 W/m² | - |
| 1778027448 | 8.89° C | 84% | 4263.3 hPa | 0 mm | - | 0 W/m² | - |
| 1778027144 | 8.89° C | 84% | 4263.3 hPa | 1.78 mm | - | 0 W/m² | - |
| 1778026840 | 8.89° C | 84% | 4263.4 hPa | 3.05 mm | - | 0 W/m² | - |
| 1778026536 | 8.89° C | 84% | 4263.2 hPa | 3.05 mm | - | 0 W/m² | - |
| 1778026234 | 8.89° C | 84% | 4263.4 hPa | 3.05 mm | - | 1 W/m² | - |
| 1778025931 | 8.89° C | 84% | 4263.3 hPa | 4.83 mm | - | 3 W/m² | - |
| 1778025629 | 8.89° C | 84% | 4263.4 hPa | 4.83 mm | - | 4 W/m² | - |
| 1778025326 | 8.89° C | 84% | 4263.5 hPa | 3.05 mm | - | 3 W/m² | - |
| 1778025023 | 8.89° C | 84% | 4263.3 hPa | 3.05 mm | - | 6 W/m² | - |
| 1778024720 | 8.89° C | 83% | 4263.3 hPa | 4.32 mm | - | 6 W/m² | - |
| 1778024417 | 9.44° C | 83% | 4263.2 hPa | 4.83 mm | - | 4 W/m² | - |
| 1778024114 | 9.44° C | 83% | 4263.2 hPa | 1.78 mm | - | 8 W/m² | - |
| 1778023812 | 9.44° C | 83% | 4263.4 hPa | 1.27 mm | - | 10 W/m² | - |
* Rain latest hour (hover to see other rain measurements)
** Current wind speed in m/s (hover to see current wind gust speed)